Location: Easthampton
(42.2676°N, 72.6690°W)
Time: 18:33:53
(UTC+00:00)

AO-91 - Pass Details

Date: 08 April 2023
Orbit: 446 x 775 km, 97.6° (Epoch: 30 May)

Event Time Altitude Azimuth Distance (km) Brightness Sun altitude
Rises 03:49:32 0° 4° (N) 3,267 ? -38.6°
Reaches altitude 10° 03:52:00 10° 357° (N) 2,341 ? -38.7°
Enters shadow 03:54:08 23° 342° (NNW) 1,629 ? -38.9°
